| time (UTC) | temp F | wind direction | speed knots | gust knots | rain 1hr in | rain 24hr in | rain mn in | humidity % | barometer mb |
| 20260906093006 | 65 | 22 | 0.0 | 3.5 | 0.00 | 0.12 | 0.00 | 87 | 1016.8 |
| 20260906092504 | 65 | 45 | 0.0 | 3.5 | 0.00 | 0.12 | 0.00 | 87 | 1016.5 |
| 20260906092005 | 65 | 45 | 0.0 | 0.9 | 0.00 | 0.13 | 0.00 | 87 | 1016.5 |
| 20260906091502 | 65 | 22 | 0.0 | 8.7 | 0.00 | 0.13 | 0.00 | 87 | 1016.5 |
| 20260906091005 | 65 | 45 | 0.0 | 8.7 | 0.00 | 0.13 | 0.00 | 87 | 1016.5 |
| 20260906090508 | 65 | 22 | 0.9 | 5.2 | 0.00 | 0.13 | 0.00 | 87 | 1016.5 |
| 20260906090004 | 65 | 67 | 0.0 | 6.1 | 0.00 | 0.13 | 0.00 | 87 | 1016.5 |
| 20260906085506 | 65 | 45 | 0.0 | 3.5 | 0.00 | 0.13 | 0.00 | 87 | 1016.5 |
| 20260906085003 | 65 | 67 | 0.0 | 3.5 | 0.00 | 0.13 | 0.00 | 88 | 1016.5 |
| 20260906084506 | 65 | 45 | 0.0 | 6.1 | 0.00 | 0.13 | 0.00 | 88 | 1016.5 |
| 20260906084008 | 65 | 360 | 0.9 | 6.1 | 0.00 | 0.13 | 0.00 | 88 | 1016.5 |
| 20260906083505 | 65 | 360 | 1.7 | 6.1 | 0.00 | 0.13 | 0.00 | 88 | 1016.5 |
| 20260906082507 | 65 | 360 | 0.9 | 3.5 | 0.00 | 0.13 | 0.00 | 88 | 1016.5 |
| 20260906082004 | 66 | 45 | 0.0 | 3.5 | 0.00 | 0.13 | 0.00 | 88 | 1016.5 |
| 20260906081507 | 66 | 360 | 1.7 | 7.0 | 0.00 | 0.13 | 0.00 | 88 | 1016.1 |
| 20260906080503 | 66 | 22 | 0.9 | 4.3 | 0.00 | 0.13 | 0.00 | 88 | 1016.5 |
| 20260906080006 | 66 | 45 | 3.5 | 6.1 | 0.00 | 0.13 | 0.00 | 88 | 1016.5 |
| 20260906075503 | 66 | 45 | 0.9 | 6.1 | 0.00 | 0.13 | 0.00 | 89 | 1016.5 |
| 20260906074007 | 66 | 360 | 2.6 | 3.5 | 0.00 | 0.13 | 0.00 | 89 | 1016.5 |
| 20260906073004 | 66 | 67 | 0.9 | 6.1 | 0.00 | 0.13 | 0.00 | 89 | 1016.5 |
| 20260906072504 | 66 | 90 | 0.9 | 4.3 | 0.00 | 0.13 | 0.00 | 90 | 1016.1 |
| 20260906071502 | 66 | 90 | 0.0 | 4.3 | 0.00 | 0.13 | 0.00 | 90 | 1016.1 |
| 20260906071004 | 66 | 45 | 0.0 | 4.3 | 0.00 | 0.13 | 0.00 | 90 | 1016.5 |
| 20260906070506 | 66 | 22 | 0.9 | 4.3 | 0.00 | 0.13 | 0.00 | 91 | 1016.5 |
| 20260906070008 | 66 | 45 | 1.7 | 5.2 | 0.00 | 0.13 | 0.00 | 91 | 1016.5 |
| 20260906065503 | 66 | 67 | 0.0 | 5.2 | 0.00 | 0.13 | 0.00 | 92 | 1016.5 |
| 20260906065005 | 66 | 22 | 2.6 | 5.2 | 0.00 | 0.13 | 0.00 | 92 | 1016.5 |
| 20260906064002 | 66 | 45 | 0.0 | 3.5 | 0.00 | 0.13 | 0.00 | 93 | 1016.5 |
| 20260906063504 | 66 | 45 | 0.0 | 3.5 | 0.00 | 0.13 | 0.00 | 93 | 1016.5 |
| 20260906063007 | 66 | 67 | 0.0 | 3.5 | 0.00 | 0.13 | 0.00 | 93 | 1016.5 |
| 20260906062503 | 66 | 45 | 1.7 | 2.6 | 0.00 | 0.13 | 0.00 | 93 | 1016.5 |
| 20260906062006 | 67 | 45 | 0.9 | 1.7 | 0.00 | 0.13 | 0.00 | 93 | 1016.5 |
| 20260906061502 | 67 | 45 | 0.0 | 3.5 | 0.00 | 0.13 | 0.00 | 93 | 1016.5 |
| 20260906061004 | 67 | 22 | 1.7 | 3.5 | 0.00 | 0.13 | 0.00 | 93 | 1016.5 |
| 20260906060506 | 67 | 360 | 0.9 | 3.5 | 0.00 | 0.13 | 0.00 | 93 | 1016.5 |
| 20260906060002 | 67 | 22 | 0.0 | 6.1 | 0.00 | 0.13 | 0.00 | 93 | 1016.5 |
| 20260906055505 | 68 | 90 | 0.9 | 6.1 | 0.00 | 0.13 | 0.00 | 93 | 1016.8 |
| 20260906055007 | 68 | 90 | 1.7 | 6.1 | 0.00 | 0.13 | 0.00 | 93 | 1016.5 |
| 20260906054508 | 68 | 22 | 1.7 | 3.5 | 0.00 | 0.13 | 0.00 | 93 | 1016.5 |
| 20260906054003 | 68 | 360 | 0.9 | 3.5 | 0.00 | 0.13 | 0.00 | 93 | 1016.5 |
| 20260906053007 | 68 | 90 | 0.0 | 3.5 | 0.00 | 0.13 | 0.00 | 93 | 1016.1 |
| 20260906052503 | 68 | 22 | 0.9 | 3.5 | 0.00 | 0.13 | 0.00 | 93 | 1016.1 |
| 20260906052005 | 68 | 67 | 0.0 | 2.6 | 0.00 | 0.13 | 0.00 | 93 | 1016.1 |
| 20260906051502 | 68 | 360 | 0.0 | 6.1 | 0.00 | 0.13 | 0.00 | 93 | 1015.8 |
| 20260906051005 | 69 | 22 | 0.9 | 6.1 | 0.00 | 0.13 | 0.00 | 93 | 1015.8 |
| 20260906050507 | 69 | 45 | 0.9 | 3.5 | 0.00 | 0.13 | 0.00 | 93 | 1015.8 |
| 20260906050003 | 69 | 67 | 0.0 | 6.1 | 0.00 | 0.13 | 0.00 | 93 | 1015.8 |
| 20260906045505 | 69 | 90 | 0.9 | 6.1 | 0.00 | 0.13 | 0.00 | 93 | 1015.8 |
| 20260906044503 | 69 | 67 | 0.0 | 8.7 | 0.00 | 0.13 | 0.00 | 93 | 1015.4 |
| 20260906044006 | 70 | 67 | 0.0 | 8.7 | 0.00 | 0.13 | 0.00 | 93 | 1015.4 |
| 20260906043508 | 70 | 67 | 0.9 | 8.7 | 0.00 | 0.13 | 0.00 | 93 | 1015.4 |
| 20260906043004 | 70 | 45 | 0.9 | 6.1 | 0.00 | 0.13 | 0.00 | 94 | 1015.4 |
| 20260906042506 | 71 | 67 | 0.9 | 6.1 | 0.00 | 0.13 | 0.00 | 94 | 1015.4 |
| 20260906042003 | 71 | 22 | 0.9 | 5.2 | 0.00 | 0.13 | 0.00 | 94 | 1015.4 |
| 20260906041006 | 71 | 67 | 0.9 | 7.0 | 0.00 | 0.13 | 0.00 | 94 | 1015.4 |
| 20260906040507 | 71 | 22 | 2.6 | 7.0 | 0.00 | 0.13 | 0.00 | 94 | 1015.4 |
| 20260906040004 | 72 | 67 | 0.9 | 7.8 | 0.00 | 0.13 | 0.00 | 94 | 1015.4 |
| 20260906035506 | 72 | 360 | 3.5 | 7.8 | 0.00 | 0.13 | 0.13 | 94 | 1015.1 |
| 20260906035003 | 72 | 45 | 1.7 | 5.2 | 0.00 | 0.13 | 0.13 | 94 | 1015.4 |
| 20260906034506 | 72 | 22 | 1.7 | 7.8 | 0.00 | 0.13 | 0.13 | 94 | 1015.4 |
| 20260906034003 | 72 | 22 | 1.7 | 7.8 | 0.00 | 0.13 | 0.13 | 94 | 1015.4 |
| 20260906033506 | 72 | 22 | 1.7 | 4.3 | 0.00 | 0.13 | 0.13 | 94 | 1015.4 |
| 20260906033003 | 72 | 45 | 1.7 | 7.0 | 0.00 | 0.13 | 0.13 | 94 | 1015.4 |
| 20260906032505 | 72 | 67 | 1.7 | 7.0 | 0.00 | 0.13 | 0.13 | 94 | 1015.4 |
| 20260906031005 | 73 | 67 | 0.9 | 6.1 | 0.00 | 0.13 | 0.13 | 93 | 1015.4 |
| 20260906030501 | 73 | 45 | 1.7 | 6.1 | 0.00 | 0.13 | 0.13 | 93 | 1015.4 |
| 20260906030004 | 73 | 67 | 0.9 | 7.0 | 0.00 | 0.13 | 0.13 | 93 | 1015.4 |
| 20260906025508 | 73 | 67 | 0.9 | 5.2 | 0.00 | 0.13 | 0.13 | 93 | 1015.4 |
| 20260906025005 | 73 | 90 | 0.9 | 3.5 | 0.00 | 0.13 | 0.13 | 93 | 1015.4 |
| 20260906024507 | 73 | 45 | 1.7 | 5.2 | 0.00 | 0.13 | 0.13 | 93 | 1015.4 |
| 20260906024004 | 73 | 22 | 0.9 | 5.2 | 0.00 | 0.13 | 0.13 | 92 | 1015.4 |
| 20260906023507 | 73 | 22 | 0.9 | 4.3 | 0.00 | 0.13 | 0.13 | 92 | 1015.4 |
| 20260906023004 | 73 | 360 | 0.0 | 3.5 | 0.00 | 0.13 | 0.13 | 92 | 1015.8 |
| 20260906022539 | 73 | 67 | 0.0 | 0.9 | 0.00 | 0.13 | 0.13 | 92 | 1015.4 |
| 20260906022003 | 73 | 67 | 0.0 | 0.9 | 0.00 | 0.13 | 0.13 | 92 | 1015.4 |
| 20260906021506 | 73 | 67 | 0.0 | 3.5 | 0.00 | 0.13 | 0.13 | 91 | 1015.4 |
| 20260906020004 | 74 | 67 | 1.7 | 3.5 | 0.00 | 0.13 | 0.13 | 91 | 1015.4 |
| 20260906015505 | 74 | 90 | 0.0 | 3.5 | 0.00 | 0.13 | 0.13 | 91 | 1015.4 |
| 20260906015005 | 74 | 45 | 1.7 | 2.6 | 0.00 | 0.13 | 0.13 | 91 | 1015.4 |
| 20260906014507 | 74 | 45 | 1.7 | 4.3 | 0.00 | 0.13 | 0.13 | 90 | 1015.1 |
| 20260906014004 | 75 | 90 | 0.0 | 2.6 | 0.00 | 0.13 | 0.13 | 90 | 1015.1 |
| 20260906013003 | 75 | 45 | 1.7 | 4.3 | 0.00 | 0.13 | 0.13 | 90 | 1015.1 |
| 20260906012506 | 75 | 90 | 0.9 | 4.3 | 0.00 | 0.13 | 0.13 | 90 | 1014.8 |
| 20260906012003 | 75 | 45 | 0.9 | 3.5 | 0.00 | 0.13 | 0.13 | 89 | 1014.8 |
| 20260906011506 | 75 | 90 | 1.7 | 5.2 | 0.00 | 0.13 | 0.13 | 89 | 1014.8 |
| 20260906011003 | 76 | 90 | 1.7 | 5.2 | 0.00 | 0.13 | 0.13 | 89 | 1014.8 |
| 20260906010505 | 76 | 67 | 0.9 | 5.2 | 0.00 | 0.13 | 0.13 | 89 | 1014.8 |
| 20260906010001 | 76 | 67 | 2.6 | 7.8 | 0.00 | 0.13 | 0.13 | 89 | 1014.8 |
| 20260906005005 | 76 | 45 | 0.9 | 7.8 | 0.00 | 0.13 | 0.13 | 90 | 1014.8 |
| 20260906004507 | 76 | 45 | 0.9 | 9.6 | 0.00 | 0.13 | 0.13 | 90 | 1014.4 |
| 20260906003505 | 76 | 90 | 4.3 | 9.6 | 0.00 | 0.13 | 0.13 | 90 | 1014.1 |
| 20260906003002 | 77 | 67 | 2.6 | 8.7 | 0.00 | 0.13 | 0.13 | 90 | 1014.1 |
| 20260906002504 | 77 | 90 | 0.0 | 5.2 | 0.00 | 0.13 | 0.13 | 90 | 1014.4 |
| 20260906001506 | 76 | 67 | 2.6 | 7.0 | 0.00 | 0.13 | 0.13 | 89 | 1014.1 |
| 20260906001002 | 76 | 90 | 0.9 | 5.2 | 0.00 | 0.13 | 0.13 | 89 | 1014.1 |
| 20260906000504 | 75 | 45 | 0.9 | 2.6 | 0.00 | 0.13 | 0.13 | 89 | 1014.1 |
| 20260906000007 | 75 | 67 | 0.9 | 1.7 | 0.00 | 0.13 | 0.13 | 88 | 1014.1 |
| 20260905235504 | 75 | 112 | 0.0 | 0.0 | 0.00 | 0.13 | 0.13 | 88 | 1014.1 |
| 20260905235006 | 75 | 135 | 0.0 | 0.0 | 0.00 | 0.13 | 0.13 | 88 | 1014.1 |
| 20260905234502 | 75 | 180 | 0.0 | 2.6 | 0.00 | 0.13 | 0.13 | 87 | 1014.1 |
| 20260905234005 | 75 | 225 | 0.0 | 2.6 | 0.00 | 0.13 | 0.13 | 87 | 1014.1 |
| 20260905233502 | 75 | 225 | 0.0 | 2.6 | 0.00 | 0.13 | 0.13 | 86 | 1014.1 |
| 20260905233004 | 75 | 180 | 1.7 | 1.7 | 0.00 | 0.13 | 0.13 | 86 | 1014.1 |
| 20260905232507 | 75 | 90 | 0.0 | 1.7 | 0.00 | 0.13 | 0.13 | 86 | 1014.1 |
| 20260905232003 | 74 | 90 | 0.0 | 1.7 | 0.00 | 0.13 | 0.13 | 86 | 1014.1 |
| 20260905231505 | 74 | 337 | 0.9 | 3.5 | 0.00 | 0.13 | 0.13 | 86 | 1014.4 |
| 20260905231008 | 74 | 292 | 1.7 | 2.6 | 0.00 | 0.13 | 0.13 | 86 | 1014.1 |
| 20260905230503 | 74 | 360 | 0.0 | 0.0 | 0.00 | 0.13 | 0.13 | 85 | 1014.1 |
| 20260905230006 | 75 | 360 | 0.0 | 0.0 | 0.00 | 0.13 | 0.13 | 85 | 1014.1 |
| 20260905225505 | 75 | 360 | 0.0 | 0.0 | 0.00 | 0.13 | 0.13 | 85 | 1014.1 |
| 20260905225007 | 75 | 315 | 0.0 | 0.0 | 0.00 | 0.13 | 0.13 | 84 | 1014.1 |
| 20260905224503 | 75 | 315 | 0.0 | 7.0 | 0.00 | 0.13 | 0.13 | 83 | 1014.1 |
| 20260905224006 | 75 | 315 | 0.0 | 7.0 | 0.00 | 0.13 | 0.13 | 83 | 1014.1 |
| 20260905223503 | 75 | 270 | 3.5 | 7.0 | 0.00 | 0.13 | 0.13 | 83 | 1014.1 |
| 20260905222506 | 76 | 270 | 2.6 | 3.5 | 0.00 | 0.13 | 0.13 | 81 | 1013.8 |
| 20260905222008 | 77 | 90 | 0.0 | 3.5 | 0.00 | 0.13 | 0.13 | 82 | 1013.8 |
| 20260905221504 | 78 | 315 | 4.3 | 10.4 | 0.00 | 0.13 | 0.13 | 84 | 1014.1 |
| 20260905221007 | 79 | 247 | 6.1 | 9.6 | 0.00 | 0.13 | 0.13 | 84 | 1013.8 |
| 20260905220504 | 80 | 22 | 1.7 | 2.6 | 0.00 | 0.13 | 0.13 | 82 | 1013.8 |
| 20260905220007 | 81 | 45 | 1.7 | 5.2 | 0.00 | 0.13 | 0.13 | 79 | 1013.4 |
| 20260905215503 | 82 | 90 | 0.0 | 5.2 | 0.00 | 0.12 | 0.12 | 77 | 1013.1 |
| 20260905215006 | 82 | 67 | 1.7 | 2.6 | 0.00 | 0.09 | 0.09 | 76 | 1013.8 |
| 20260905214503 | 83 | 112 | 1.7 | 6.1 | 0.00 | 0.08 | 0.08 | 75 | 1013.1 |
| 20260905214006 | 83 | 112 | 0.9 | 6.1 | 0.00 | 0.08 | 0.08 | 74 | 1012.7 |
| 20260905213502 | 84 | 67 | 1.7 | 5.2 | 0.00 | 0.08 | 0.08 | 73 | 1012.7 |
| 20260905213005 | 84 | 90 | 1.7 | 8.7 | 0.00 | 0.08 | 0.08 | 71 | 1013.1 |
| 20260905212502 | 84 | 90 | 3.5 | 8.7 | 0.00 | 0.08 | 0.08 | 69 | 1013.1 |
| 20260905212006 | 85 | 45 | 0.9 | 4.3 | 0.00 | 0.08 | 0.08 | 68 | 1013.1 |
| 20260905211502 | 87 | 67 | 2.6 | 6.1 | 0.00 | 0.08 | 0.08 | 65 | 1013.1 |
| 20260905210506 | 87 | 337 | 2.6 | 6.1 | 0.00 | 0.08 | 0.08 | 63 | 1013.4 |
| 20260905210003 | 87 | 270 | 5.2 | 9.6 | 0.00 | 0.08 | 0.08 | 62 | 1013.1 |
| 20260905204504 | 87 | 292 | 4.3 | 7.8 | 0.00 | 0.15 | 0.08 | 61 | 1013.4 |
| 20260905204008 | 88 | 270 | 3.5 | 7.8 | 0.00 | 0.17 | 0.08 | 60 | 1013.8 |
| 20260905203505 | 88 | 315 | 5.2 | 7.8 | 0.00 | 0.19 | 0.08 | 59 | 1013.4 |
| 20260905202504 | 89 | 270 | 2.6 | 4.3 | 0.00 | 0.19 | 0.08 | 60 | 1013.4 |
| 20260905202001 | 88 | 270 | 2.6 | 4.3 | 0.00 | 0.19 | 0.08 | 60 | 1013.8 |
| 20260905201505 | 87 | 292 | 2.6 | 9.6 | 0.00 | 0.19 | 0.08 | 60 | 1013.8 |
| 20260905200006 | 88 | 292 | 5.2 | 9.6 | 0.00 | 0.19 | 0.08 | 60 | 1013.8 |
| 20260905195005 | 88 | 202 | 2.6 | 9.6 | 0.00 | 0.19 | 0.08 | 60 | 1014.1 |
| 20260905194502 | 89 | 247 | 6.1 | 9.6 | 0.00 | 0.19 | 0.08 | 60 | 1014.1 |
| 20260905194005 | 88 | 202 | 2.6 | 9.6 | 0.00 | 0.19 | 0.08 | 61 | 1014.1 |
| 20260905193505 | 88 | 270 | 2.6 | 7.8 | 0.00 | 0.19 | 0.08 | 62 | 1014.1 |
| 20260905193001 | 88 | 225 | 2.6 | 6.1 | 0.00 | 0.19 | 0.08 | 62 | 1014.4 |
| 20260905192505 | 87 | 157 | 3.5 | 6.1 | 0.00 | 0.19 | 0.08 | 63 | 1014.4 |
| 20260905192007 | 87 | 247 | 3.5 | 6.1 | 0.00 | 0.19 | 0.08 | 64 | 1014.4 |
| 20260905191504 | 86 | 292 | 4.3 | 7.8 | 0.00 | 0.19 | 0.08 | 64 | 1014.4 |
| 20260905191007 | 86 | 292 | 4.3 | 7.8 | 0.00 | 0.19 | 0.08 | 64 | 1014.4 |
| 20260905190504 | 86 | 157 | 1.7 | 7.8 | 0.00 | 0.19 | 0.08 | 64 | 1014.8 |
| 20260905185502 | 86 | 292 | 2.6 | 8.7 | 0.00 | 0.19 | 0.08 | 64 | 1014.8 |
| 20260905185005 | 86 | 315 | 4.3 | 8.7 | 0.00 | 0.19 | 0.08 | 64 | 1014.8 |
| 20260905184508 | 85 | 270 | 2.6 | 7.8 | 0.00 | 0.19 | 0.08 | 64 | 1014.8 |
| 20260905184005 | 86 | 315 | 4.3 | 7.8 | 0.00 | 0.19 | 0.08 | 64 | 1014.8 |
| 20260905183502 | 86 | 292 | 3.5 | 5.2 | 0.00 | 0.19 | 0.08 | 64 | 1015.1 |
| 20260905183005 | 86 | 337 | 1.7 | 6.1 | 0.00 | 0.19 | 0.08 | 64 | 1014.8 |
| 20260905182503 | 85 | 292 | 1.7 | 6.1 | 0.00 | 0.19 | 0.08 | 65 | 1014.8 |
| 20260905181507 | 83 | 337 | 3.5 | 7.0 | 0.00 | 0.19 | 0.08 | 67 | 1015.1 |
| 20260905181004 | 84 | 270 | 5.2 | 7.0 | 0.00 | 0.19 | 0.08 | 67 | 1015.1 |
| 20260905180507 | 84 | 270 | 4.3 | 6.1 | 0.00 | 0.19 | 0.08 | 67 | 1015.1 |
| 20260905180004 | 83 | 247 | 1.7 | 7.8 | 0.00 | 0.19 | 0.08 | 67 | 1015.1 |
| 20260905175507 | 83 | 292 | 3.5 | 7.8 | 0.00 | 0.19 | 0.08 | 67 | 1015.1 |
| 20260905175004 | 84 | 270 | 2.6 | 6.1 | 0.00 | 0.19 | 0.08 | 67 | 1015.1 |
| 20260905174507 | 84 | 270 | 1.7 | 6.1 | 0.00 | 0.19 | 0.08 | 67 | 1015.4 |
| 20260905174004 | 84 | 270 | 3.5 | 6.1 | 0.00 | 0.19 | 0.08 | 69 | 1015.4 |
| 20260905173002 | 82 | 45 | 0.0 | 4.3 | 0.00 | 0.19 | 0.08 | 73 | 1015.1 |
| 20260905172505 | 80 | 292 | 1.7 | 4.3 | 0.00 | 0.19 | 0.08 | 74 | 1015.4 |
| 20260905172034 | 80 | 292 | 0.0 | 3.5 | 0.00 | 0.19 | 0.08 | 75 | 1015.4 |
| 20260905171504 | 80 | 315 | 0.0 | 9.6 | 0.00 | 0.19 | 0.08 | 75 | 1015.8 |
| 20260905165507 | 80 | 315 | 3.5 | 7.0 | 0.00 | 0.19 | 0.08 | 73 | 1015.1 |
| 20260905165010 | 80 | 270 | 4.3 | 7.0 | 0.00 | 0.19 | 0.08 | 72 | 1014.8 |
| 20260905164506 | 81 | 225 | 2.6 | 7.8 | 0.00 | 0.19 | 0.08 | 71 | 1014.8 |
| 20260905163504 | 81 | 270 | 4.3 | 7.8 | 0.00 | 0.19 | 0.08 | 70 | 1015.4 |
| 20260905163007 | 82 | 270 | 3.5 | 8.7 | 0.00 | 0.19 | 0.08 | 70 | 1015.4 |
| 20260905162005 | 81 | 292 | 3.5 | 8.7 | 0.00 | 0.19 | 0.08 | 71 | 1015.4 |
| 20260905161502 | 81 | 270 | 7.0 | 10.4 | 0.00 | 0.19 | 0.08 | 71 | 1015.4 |
| 20260905161005 | 80 | 225 | 4.3 | 10.4 | 0.00 | 0.19 | 0.08 | 70 | 1015.4 |
| 20260905160502 | 80 | 270 | 6.1 | 8.7 | 0.00 | 0.19 | 0.08 | 70 | 1015.4 |
| 20260905160005 | 80 | 180 | 1.7 | 9.6 | 0.00 | 0.19 | 0.08 | 70 | 1015.4 |
| 20260905155507 | 81 | 247 | 4.3 | 9.6 | 0.00 | 0.19 | 0.08 | 70 | 1015.4 |
| 20260905154505 | 81 | 202 | 0.9 | 9.6 | 0.00 | 0.19 | 0.08 | 70 | 1015.4 |
| 20260905154002 | 81 | 202 | 1.7 | 9.6 | 0.00 | 0.19 | 0.08 | 71 | 1015.4 |
| 20260905153005 | 80 | 292 | 2.6 | 7.0 | 0.00 | 0.19 | 0.08 | 72 | 1015.1 |
| 20260905152508 | 80 | 270 | 2.6 | 6.1 | 0.00 | 0.19 | 0.08 | 72 | 1015.4 |
| 20260905152004 | 79 | 247 | 1.7 | 6.1 | 0.00 | 0.19 | 0.08 | 73 | 1015.4 |
| 20260905151507 | 79 | 247 | 1.7 | 8.7 | 0.00 | 0.19 | 0.08 | 75 | 1015.4 |
| 20260905151004 | 78 | 247 | 3.5 | 8.7 | 0.00 | 0.19 | 0.08 | 76 | 1015.4 |
| 20260905150506 | 78 | 157 | 2.6 | 6.1 | 0.00 | 0.19 | 0.08 | 76 | 1015.4 |
| 20260905150002 | 78 | 247 | 2.6 | 9.6 | 0.00 | 0.19 | 0.08 | 77 | 1015.4 |
| 20260905145505 | 78 | 247 | 3.5 | 9.6 | 0.00 | 0.19 | 0.08 | 77 | 1015.1 |
| 20260905145008 | 77 | 202 | 1.7 | 9.6 | 0.00 | 0.19 | 0.08 | 78 | 1015.1 |
| 20260905144504 | 77 | 202 | 3.5 | 6.1 | 0.00 | 0.19 | 0.08 | 79 | 1015.1 |
| 20260905143503 | 77 | 247 | 3.5 | 6.1 | 0.00 | 0.19 | 0.08 | 80 | 1015.4 |
| 20260905143006 | 76 | 270 | 1.7 | 7.0 | 0.00 | 0.19 | 0.08 | 82 | 1015.1 |
| 20260905142503 | 76 | 202 | 2.6 | 6.1 | 0.00 | 0.19 | 0.08 | 83 | 1015.1 |
| 20260905142006 | 75 | 247 | 1.7 | 6.1 | 0.00 | 0.19 | 0.08 | 84 | 1015.1 |
| 20260905141506 | 75 | 292 | 1.7 | 6.1 | 0.00 | 0.19 | 0.08 | 85 | 1015.4 |
| 20260905141002 | 74 | 247 | 1.7 | 6.1 | 0.00 | 0.19 | 0.08 | 86 | 1015.4 |
| 20260905140505 | 74 | 180 | 2.6 | 4.3 | 0.00 | 0.19 | 0.08 | 88 | 1015.1 |
| 20260905140007 | 73 | 202 | 2.6 | 5.2 | 0.00 | 0.19 | 0.08 | 90 | 1015.1 |
| 20260905135504 | 72 | 180 | 0.0 | 5.2 | 0.00 | 0.19 | 0.08 | 91 | 1015.1 |
| 20260905134003 | 70 | 135 | 1.7 | 6.1 | 0.00 | 0.19 | 0.08 | 94 | 1015.8 |
| 20260905133506 | 70 | 180 | 2.6 | 6.1 | 0.00 | 0.19 | 0.08 | 95 | 1015.8 |
| 20260905133002 | 69 | 202 | 0.9 | 7.0 | 0.00 | 0.19 | 0.08 | 96 | 1015.8 |
| 20260905132505 | 69 | 202 | 1.7 | 7.0 | 0.00 | 0.19 | 0.08 | 96 | 1016.1 |
| 20260905131004 | 68 | 180 | 0.9 | 5.2 | 0.00 | 0.19 | 0.08 | 97 | 1016.5 |
| 20260905130507 | 68 | 180 | 1.7 | 5.2 | 0.00 | 0.19 | 0.08 | 97 | 1016.5 |
| 20260905130004 | 68 | 135 | 0.0 | 0.0 | 0.00 | 0.19 | 0.08 | 97 | 1016.8 |
| 20260905125505 | 68 | 135 | 0.0 | 0.0 | 0.00 | 0.19 | 0.08 | 97 | 1016.8 |
| 20260905125007 | 68 | 157 | 0.0 | 0.0 | 0.00 | 0.19 | 0.08 | 97 | 1016.8 |
| 20260905124502 | 68 | 157 | 0.0 | 0.0 | 0.00 | 0.19 | 0.08 | 97 | 1016.8 |
| 20260905124004 | 68 | 135 | 0.0 | 0.0 | 0.00 | 0.19 | 0.08 | 97 | 1016.8 |
| 20260905123507 | 68 | 135 | 0.0 | 0.0 | 0.00 | 0.19 | 0.08 | 97 | 1016.8 |
| 20260905123003 | 68 | 135 | 0.0 | 0.0 | 0.00 | 0.19 | 0.08 | 97 | 1016.5 |
| 20260905122505 | 68 | 135 | 0.0 | 0.0 | 0.00 | 0.19 | 0.08 | 97 | 1016.5 |
| 20260905122008 | 68 | 135 | 0.0 | 0.0 | 0.00 | 0.19 | 0.08 | 96 | 1016.5 |
| 20260905120007 | 67 | 90 | 0.0 | 2.6 | 0.00 | 0.19 | 0.08 | 96 | 1016.5 |
| 20260905115509 | 67 | 90 | 0.0 | 2.6 | 0.00 | 0.19 | 0.08 | 96 | 1016.5 |
| 20260905114006 | 67 | 90 | 0.0 | 0.0 | 0.00 | 0.19 | 0.08 | 96 | 1016.8 |
| 20260905113503 | 67 | 67 | 0.0 | 0.0 | 0.00 | 0.19 | 0.08 | 96 | 1017.1 |
| 20260905113005 | 67 | 67 | 0.0 | 3.5 | 0.00 | 0.19 | 0.08 | 96 | 1017.1 |
| 20260905112007 | 67 | 90 | 0.0 | 3.5 | 0.00 | 0.19 | 0.08 | 96 | 1017.5 |
| 20260905111504 | 67 | 337 | 2.6 | 5.2 | 0.00 | 0.19 | 0.08 | 96 | 1017.8 |
| 20260905111005 | 67 | 45 | 0.0 | 5.2 | 0.00 | 0.19 | 0.08 | 96 | 1017.1 |
| 20260905110507 | 67 | 90 | 0.9 | 5.2 | 0.00 | 0.19 | 0.08 | 95 | 1017.1 |
| 20260905110003 | 67 | 292 | 1.7 | 7.0 | 0.00 | 0.19 | 0.08 | 95 | 1017.1 |
| 20260905105506 | 67 | 22 | 2.6 | 7.0 | 0.00 | 0.19 | 0.08 | 95 | 1017.5 |
| 20260905105002 | 67 | 67 | 1.7 | 6.1 | 0.00 | 0.19 | 0.08 | 95 | 1017.5 |
| 20260905104505 | 68 | 22 | 3.5 | 7.0 | 0.00 | 0.19 | 0.08 | 95 | 1017.5 |
| 20260905104002 | 68 | 67 | 1.7 | 7.0 | 0.00 | 0.18 | 0.07 | 95 | 1017.1 |
| 20260905103505 | 68 | 112 | 0.9 | 7.0 | 0.00 | 0.16 | 0.05 | 95 | 1017.1 |
| 20260905103007 | 68 | 67 | 1.7 | 9.6 | 0.00 | 0.13 | 0.02 | 94 | 1017.1 |
| 20260905102503 | 68 | 90 | 1.7 | 9.6 | 0.00 | 0.13 | 0.02 | 94 | 1017.5 |
| 20260905102005 | 68 | 45 | 0.0 | 5.2 | 0.00 | 0.13 | 0.02 | 94 | 1017.8 |
| 20260905101502 | 68 | 90 | 0.0 | 8.7 | 0.00 | 0.13 | 0.02 | 94 | 1017.5 |
| 20260905101005 | 68 | 45 | 0.0 | 8.7 | 0.00 | 0.13 | 0.02 | 94 | 1017.8 |
| 20260905100508 | 68 | 67 | 4.3 | 8.7 | 0.00 | 0.13 | 0.02 | 93 | 1017.5 |
| 20260905100004 | 68 | 90 | 2.6 | 16.5 | 0.00 | 0.13 | 0.02 | 93 | 1017.8 |
| 20260905095507 | 68 | 67 | 0.9 | 16.5 | 0.00 | 0.13 | 0.02 | 92 | 1017.8 |
| 20260905095004 | 69 | 90 | 3.5 | 16.5 | 0.00 | 0.12 | 0.01 | 92 | 1017.8 |
| 20260905094006 | 69 | 22 | 4.3 | 14.8 | 0.00 | 0.12 | 0.01 | 91 | 1017.8 |
| 20260905093503 | 70 | 22 | 2.6 | 14.8 | 0.00 | 0.12 | 0.01 | 91 | 1017.8 |